When you browse on this site, cookies collect data to enhance your experience and personalize the content and advertising you see.
Visit our Privacy Policy to learn more. By continuing to use the site, you agree to this use of cookies and data.
EN

Hourly Weather Kallakkurichchi

Today, 9 August, Sunday

Time Temperature Precipitation Wind Pressure Humidity
00:00 +28°C° 0.1 mm 3 mps 745 mmHg 81%
01:00 +28°C° 0.1 mm 3 mps 744 mmHg 81%
02:00 +28°C° 0.1 mm 3 mps 744 mmHg 82%
03:00 +28°C° 0.1 mm 3 mps 744 mmHg 82%
04:00 +28°C° 0.1 mm 3 mps 744 mmHg 83%
05:00 +27°C° 0.1 mm 2 mps 743 mmHg 83%
06:00 +28°C° 0 mm 3 mps 744 mmHg 81%
07:00 +28°C° 0 mm 3 mps 744 mmHg 80%
08:00 +28°C° 0 mm 3 mps 745 mmHg 79%
09:00 +29°C° 0 mm 3 mps 745 mmHg 74%
10:00 +30°C° 0 mm 3 mps 745 mmHg 70%
11:00 +31°C° 0 mm 3 mps 745 mmHg 65%
12:00 +33°C° 0.3 mm 3 mps 744 mmHg 62%
13:00 +34°C° 0.3 mm 2 mps 743 mmHg 59%
14:00 +35°C° 0.3 mm 2 mps 743 mmHg 55%
15:00 +34°C° 1 mm 2 mps 743 mmHg 59%
16:00 +32°C° 1 mm 2 mps 742 mmHg 62%
17:00 +31°C° 1 mm 2 mps 742 mmHg 66%
18:00 +31°C° 0.3 mm 3 mps 743 mmHg 68%
19:00 +30°C° 0.3 mm 3 mps 743 mmHg 70%
20:00 +29°C° 0.3 mm 3 mps 744 mmHg 72%
21:00 +29°C° 0 mm 3 mps 744 mmHg 74%
22:00 +29°C° 0 mm 3 mps 744 mmHg 76%
23:00 +28°C° 0 mm 3 mps 745 mmHg 78%

Tomorrow, 10 August, Monday

Time Temperature Precipitation Wind Pressure Humidity
00:00 +28°C° 0 mm 3 mps 744 mmHg 78%
01:00 +28°C° 0 mm 3 mps 744 mmHg 79%
02:00 +27°C° 0 mm 3 mps 743 mmHg 79%
03:00 +27°C° 0 mm 3 mps 743 mmHg 79%
04:00 +27°C° 0 mm 2 mps 743 mmHg 78%
05:00 +28°C° 0 mm 2 mps 743 mmHg 77%
06:00 +27°C° 0 mm 2 mps 744 mmHg 78%
07:00 +27°C° 0 mm 2 mps 745 mmHg 79%
08:00 +27°C° 0 mm 2 mps 745 mmHg 80%
09:00 +28°C° 0 mm 2 mps 745 mmHg 75%
10:00 +29°C° 0 mm 2 mps 745 mmHg 71%
11:00 +30°C° 0 mm 2 mps 745 mmHg 67%
12:00 +31°C° 0 mm 3 mps 744 mmHg 64%
13:00 +31°C° 0 mm 3 mps 744 mmHg 61%
14:00 +33°C° 0 mm 3 mps 743 mmHg 59%
15:00 +32°C° 0 mm 2 mps 743 mmHg 61%
16:00 +31°C° 0 mm 2 mps 743 mmHg 63%
17:00 +31°C° 0 mm 2 mps 743 mmHg 65%
18:00 +30°C° 0.1 mm 2 mps 744 mmHg 67%
19:00 +30°C° 0.1 mm 2 mps 744 mmHg 70%
20:00 +29°C° 0.1 mm 2 mps 745 mmHg 72%
21:00 +29°C° 0 mm 2 mps 745 mmHg 72%
22:00 +29°C° 0 mm 2 mps 745 mmHg 73%
23:00 +29°C° 0 mm 2 mps 745 mmHg 73%

Day after tomorrow, 11 August, Tuesday

Time Temperature Precipitation Wind Pressure Humidity
00:00 +28°C° 0 mm 2 mps 744 mmHg 75%
01:00 +28°C° 0 mm 2 mps 744 mmHg 76%
02:00 +28°C° 0 mm 2 mps 744 mmHg 78%
03:00 +28°C° 0 mm 2 mps 744 mmHg 78%
04:00 +28°C° 0 mm 2 mps 744 mmHg 79%
05:00 +27°C° 0 mm 2 mps 744 mmHg 79%
06:00 +28°C° 0 mm 1 mps 744 mmHg 76%
07:00 +29°C° 0 mm 1 mps 745 mmHg 73%
08:00 +30°C° 0 mm 1 mps 745 mmHg 70%
09:00 +30°C° 0 mm 1 mps 745 mmHg 66%
10:00 +31°C° 0 mm 2 mps 746 mmHg 62%
11:00 +32°C° 0 mm 2 mps 746 mmHg 58%
12:00 +34°C° 0 mm 2 mps 745 mmHg 57%
13:00 +34°C° 0 mm 2 mps 744 mmHg 56%
14:00 +34°C° 0 mm 3 mps 743 mmHg 55%
15:00 +34°C° 0.1 mm 2 mps 743 mmHg 56%
16:00 +34°C° 0.1 mm 2 mps 743 mmHg 57%
17:00 +34°C° 0.1 mm 2 mps 743 mmHg 59%
18:00 +32°C° 0 mm 2 mps 744 mmHg 62%
19:00 +31°C° 0 mm 2 mps 745 mmHg 65%
20:00 +30°C° 0 mm 2 mps 746 mmHg 68%
21:00 +30°C° 0 mm 2 mps 746 mmHg 69%
22:00 +30°C° 0 mm 2 mps 746 mmHg 70%
23:00 +30°C° 0 mm 2 mps 746 mmHg 71%

12 August, Wednesday

Time Temperature Precipitation Wind Pressure Humidity
00:00 +29°C° 0 mm 2 mps 745 mmHg 72%
01:00 +29°C° 0 mm 2 mps 745 mmHg 74%
02:00 +28°C° 0 mm 2 mps 744 mmHg 75%
03:00 +28°C° 0 mm 2 mps 744 mmHg 76%
04:00 +28°C° 0 mm 2 mps 744 mmHg 76%
05:00 +28°C° 0 mm 3 mps 745 mmHg 76%
06:00 +29°C° 0 mm 2 mps 745 mmHg 73%
07:00 +30°C° 0 mm 2 mps 746 mmHg 69%
08:00 +30°C° 0 mm 2 mps 746 mmHg 65%
09:00 +32°C° 0 mm 2 mps 746 mmHg 58%
10:00 +35°C° 0 mm 3 mps 746 mmHg 52%
11:00 +36°C° 0 mm 3 mps 746 mmHg 46%
12:00 +37°C° 0 mm 3 mps 745 mmHg 45%
13:00 +37°C° 0 mm 3 mps 745 mmHg 44%
14:00 +38°C° 0 mm 4 mps 744 mmHg 43%
15:00 +37°C° 0 mm 3 mps 744 mmHg 44%
16:00 +37°C° 0 mm 3 mps 744 mmHg 46%
17:00 +37°C° 0 mm 3 mps 744 mmHg 48%
18:00 +35°C° 0.1 mm 3 mps 744 mmHg 52%
19:00 +34°C° 0.1 mm 2 mps 745 mmHg 56%
20:00 +32°C° 0.1 mm 2 mps 746 mmHg 60%
21:00 +31°C° 0.1 mm 2 mps 746 mmHg 62%
22:00 +31°C° 0.1 mm 2 mps 746 mmHg 64%
23:00 +30°C° 0.1 mm 1 mps 747 mmHg 66%

13 August, Thursday

Time Temperature Precipitation Wind Pressure Humidity
00:00 +30°C° 0 mm 1 mps 746 mmHg 68%
01:00 +29°C° 0 mm 2 mps 745 mmHg 70%
02:00 +29°C° 0 mm 2 mps 745 mmHg 72%
03:00 +28°C° 0 mm 2 mps 745 mmHg 73%
04:00 +28°C° 0 mm 2 mps 745 mmHg 74%
05:00 +28°C° 0 mm 2 mps 745 mmHg 76%
06:00 +29°C° 0 mm 2 mps 745 mmHg 71%
07:00 +30°C° 0 mm 2 mps 746 mmHg 67%
08:00 +31°C° 0 mm 2 mps 746 mmHg 62%
09:00 +34°C° 0 mm 2 mps 746 mmHg 55%
10:00 +35°C° 0 mm 2 mps 746 mmHg 48%
11:00 +37°C° 0 mm 2 mps 745 mmHg 41%
12:00 +38°C° 0 mm 3 mps 744 mmHg 39%
13:00 +38°C° 0 mm 3 mps 744 mmHg 38%
14:00 +40°C° 0 mm 4 mps 743 mmHg 36%
15:00 +38°C° 0 mm 4 mps 743 mmHg 38%
16:00 +38°C° 0 mm 4 mps 742 mmHg 41%
17:00 +37°C° 0 mm 4 mps 742 mmHg 44%
18:00 +36°C° 0 mm 3 mps 743 mmHg 48%
19:00 +34°C° 0 mm 3 mps 744 mmHg 51%
20:00 +32°C° 0 mm 2 mps 744 mmHg 55%
21:00 +32°C° 0.1 mm 2 mps 745 mmHg 58%
22:00 +31°C° 0.1 mm 2 mps 745 mmHg 60%
23:00 +31°C° 0.1 mm 2 mps 745 mmHg 62%

14 August, Friday

Time Temperature Precipitation Wind Pressure Humidity
00:00 +31°C° 0.1 mm 2 mps 745 mmHg 65%
01:00 +30°C° 0.1 mm 2 mps 744 mmHg 67%
02:00 +30°C° 0.1 mm 2 mps 744 mmHg 69%
03:00 +29°C° 0 mm 2 mps 744 mmHg 70%
04:00 +29°C° 0 mm 2 mps 744 mmHg 70%
05:00 +29°C° 0 mm 2 mps 744 mmHg 71%
06:00 +29°C° 0 mm 2 mps 744 mmHg 67%
07:00 +30°C° 0 mm 2 mps 745 mmHg 63%
08:00 +31°C° 0 mm 3 mps 745 mmHg 59%
09:00 +32°C° 0 mm 2 mps 745 mmHg 54%
10:00 +35°C° 0 mm 2 mps 745 mmHg 49%
11:00 +36°C° 0 mm 2 mps 745 mmHg 44%
12:00 +37°C° 0 mm 2 mps 744 mmHg 42%
13:00 +38°C° 0 mm 2 mps 743 mmHg 41%
14:00 +38°C° 0 mm 2 mps 742 mmHg 39%
15:00 +38°C° 0 mm 2 mps 742 mmHg 41%
16:00 +37°C° 0 mm 2 mps 742 mmHg 43%
17:00 +37°C° 0 mm 3 mps 742 mmHg 46%
18:00 +36°C° 0 mm 2 mps 743 mmHg 50%
19:00 +34°C° 0 mm 2 mps 743 mmHg 54%
20:00 +32°C° 0 mm 1 mps 744 mmHg 58%
21:00 +32°C° 0.1 mm 2 mps 744 mmHg 60%
22:00 +31°C° 0.1 mm 2 mps 744 mmHg 62%
23:00 +31°C° 0.1 mm 2 mps 745 mmHg 64%
Show more